Powrót do katalogu

STARLINK-33665

AktywnyŁącznośćVLEO
NORAD 63281·PAYLOAD·🇺🇸 United States

Wystrzelony Mar 15, 2025 z Cape Canaveral Space Force Station

Loading…

Następne Przeloty (najbliższe 24 godziny)

TLE

ŚwieżeSource: CelesTrak SupGP

Epoka: Sep 15, 2026, 03:02 UTC

1 63281C 25053S   26258.12687500 -.00022320  00000+0 -80855-3 0  2584
2 63281  42.9990 251.4234 0001314 265.8306   8.7664 15.27585328    13

Śledź STARLINK-33665 w czasie rzeczywistym z AllMySat

Download on the App Store